铱星星座 5星 (IRIDIUM 5)

导读 | 豆包AI

IRIDIUM 5(铱星5号)是美国于1997年5月5日发射的低轨通信卫星,隶属于铱星卫星星座。该星座运行于近地轨道,相比地球静止轨道具备低延迟、低功耗优势,通过多星组网实现全球无死角通信覆盖, even支持极地等偏远区域,为全球卫星电话、数据传输等服务提供基础设施支撑,是早期全球卫星移动通信系统的重要组成部分。

Basic Information
目录编号:
24795
目录名称:
IRIDIUM 5
国际标识:
1997-020D
轨道中心:
EARTH
卫星名称:
铱星星座 5星
卫星全名:
铱星星座 5星 (IRIDIUM 5)
卫星状态:
在轨 (已飞行10585 天)
发射日期:
1997-05-05 UTC
国别 :
美国 (US)
星等 :
--
Orbit Information
数据来源 国际轨道数据 AOE轨道数据
星历时间 2026-04-28T18:58:55+0800
10小时前
查看轨道信息
2026-04-27T17:00:00+0800
1天前
查看轨道信息
半长轴 6950.963km 6951km
偏心率 0.0103695 0.0103644
轨道倾角 86.383° 86.384°
近地点辐角 83.789° 87.573°
升交点赤经 297.912° 298.414°
平近点角 277.515° 199.193°
近地点 500.747km 500.82km
远地点 644.905km 644.906km
周期 96.123分钟 96.124分钟
每日圈数 14.980812 14.980693
Detailed Information
平衡模式:
三轴稳定
覆盖范围:
全球
运营商:
铱星通信公司
运营商所在国:
美国
使用方式:
暂无
Satellite Introduction
铱星(Iridium)是由共66个运作中的通信卫星组成的卫星通信系统。这个系统原本规划77个通信卫星,所以用原子序数为77的铱元素来命名。铱卫星允许人们使用手持型电子设备进行全球性的语音及数据通讯。该卫星已退役。
2D Orbit Map
3D Orbit Map
Orbit Altitude Analysis Chart
Orbit Inclination Analysis Chart
Orbit Comprehensive Analysis Chart
View Comprehensive Chart